Weather History for GMMX - May, 2014

Change the Weather History Date:

Tuesday, May 6, 2014

  Actual Average Record
Temperature  
Mean Temperature 70 °F -  
Max Temperature 75 °F 83 °F 95 °F (2013)
Min Temperature 64 °F 58 °F 53 °F (1998)
Cooling Degree Days 4    
Growing Degree Days 20 (Base 50)    
Moisture  
Dew Point 58 °F    
Average Humidity 62    
Maximum Humidity 83    
Minimum Humidity 39    
Precipitation  
Precipitation 0.00 in 0.03 in - ()
Sea Level Pressure  
Sea Level Pressure 29.91 in    
Wind  
Wind Speed 6 mph ()    
Max Wind Speed 14 mph    
Max Gust Speed -    
Visibility 5.2 miles    
Events      
Averages and records for this station are not official NWS values.
T = Trace of Precipitation, MM = Missing Value Source: Averaged Metar Reports

Daily Weather History Graph

Daily Weather History Graph

Search for Another Location

Airport or City:

Trip Planner

Search our weather history database for the weather conditions in past years. The results will help you decide how hot, cold, wet, or windy it might be!

Date:

Astronomy

May. 06, 2014 Rise Set
Actual Time 6:42 AM WEST 8:15 PM WEST
Civil Twilight 6:16 AM WEST 8:41 PM WEST
Nautical Twilight 5:45 AM WEST 9:12 PM WEST
Astronomical Twilight 5:12 AM WEST 9:45 PM WEST
Moon 12:42 PM WEST (5/6) 1:29 AM WEST (5/6)
Length of Visible Light 14h 25m
Length of Day
13h 32m
Waxing Crescent, 44% of the Moon is Illuminated
May 6
Waxing Crescent
May 7
First Quarter
May 14
Full
May 21
Last Quarter
May 28
New

Hourly Weather History & Observations

Time (WEST) Temp. Dew Point Humidity Pressure Visibility Wind Dir Wind Speed Gust Speed Precip Events Conditions
12:00 AM 75.2 °F 57.2 °F 53% 29.86 in 6.2 mi WSW 6.9 mph - N/A   Partly Cloudy
12:30 AM 73.4 °F 57.2 °F 57% 29.83 in - SW 5.8 mph - N/A   Clear
1:00 AM 72 °F 57 °F 49% 29.78 in 6 mi SW 6.9 mph - -  
1:00 AM 73.4 °F 57.2 °F 57% 29.83 in - SW 6.9 mph - N/A   Clear
1:30 AM 71.6 °F 57.2 °F 60% 29.83 in - WSW 6.9 mph - N/A   Clear
2:00 AM 69.8 °F 57.2 °F 64% 29.83 in - SW 4.6 mph - N/A   Clear
2:30 AM 69.8 °F 57.2 °F 64% 29.83 in - West 3.5 mph - N/A   Clear
3:00 AM 69.8 °F 57.2 °F 64% 29.80 in - West 3.5 mph - N/A   Clear
3:30 AM 69.8 °F 59.0 °F 68% 29.83 in - SW 3.5 mph - N/A   Clear
4:00 AM 68 °F 58 °F 61% 29.77 in 6 mi WSW 4.6 mph - -  
4:00 AM 68.0 °F 57.2 °F 68% 29.80 in - WSW 3.5 mph - N/A   Clear
4:30 AM 68.0 °F 59.0 °F 73% 29.80 in 6.2 mi Variable 2.3 mph - N/A   Unknown
5:00 AM 68.0 °F 57.2 °F 68% 29.83 in - West 3.5 mph - N/A   Clear
5:30 AM 68.0 °F 59.0 °F 73% 29.83 in - SW 3.5 mph - N/A   Clear
6:00 AM 66.2 °F 59.0 °F 78% 29.83 in - WSW 5.8 mph - N/A   Clear
6:30 AM 66.2 °F 59.0 °F 78% 29.86 in 6.2 mi WSW 6.9 mph - N/A   Scattered Clouds
7:00 AM 65 °F 58 °F 72% 29.83 in 6 mi WSW 5.8 mph - -   Partly Cloudy
7:00 AM 66.2 °F 59.0 °F 78% 29.86 in 6.2 mi WSW 5.8 mph - N/A   Mostly Cloudy
7:30 AM 64.4 °F 59.0 °F 83% 29.86 in 5.0 mi WSW 5.8 mph - N/A   Mostly Cloudy
8:00 AM 66.2 °F 59.0 °F 78% 29.89 in 5.0 mi West 8.1 mph - N/A   Mostly Cloudy
8:30 AM 66.2 °F 59.0 °F 78% 29.92 in 5.0 mi West 12.7 mph - N/A   Mostly Cloudy
1:00 PM 68 °F 60 °F 69% 29.92 in 4 mi West 9.2 mph - -   Scattered Clouds
1:00 PM 69.8 °F 60.8 °F 73% 29.98 in 3.7 mi WSW 9.2 mph - N/A   Mostly Cloudy
1:30 PM 71.6 °F 59.0 °F 64% 29.98 in 5.0 mi West 10.4 mph - N/A   Mostly Cloudy
2:00 PM 69.8 °F 59.0 °F 68% 29.98 in 5.0 mi West 8.1 mph - N/A   Mostly Cloudy
2:30 PM 71.6 °F 59.0 °F 64% 29.98 in 5.0 mi SW 9.2 mph - N/A   Mostly Cloudy
3:00 PM 73.4 °F 59.0 °F 61% 29.95 in 5.0 mi West 13.8 mph - N/A   Scattered Clouds
3:30 PM 73.4 °F 59.0 °F 61% 29.98 in 5.0 mi West 6.9 mph - N/A   Scattered Clouds
4:00 PM 74 °F 58 °F 48% 29.94 in 5 mi SW 8.1 mph - -   Overcast
4:00 PM 73.4 °F 59.0 °F 61% 29.98 in 5.0 mi WSW 10.4 mph - N/A   Scattered Clouds
4:30 PM 73.4 °F 57.2 °F 57% 29.98 in 5.0 mi WSW 9.2 mph - N/A   Scattered Clouds
5:00 PM 73.4 °F 57.2 °F 57% 29.98 in 5.0 mi NW 5.8 mph - N/A   Scattered Clouds
5:30 PM 73.4 °F 55.4 °F 53% 29.98 in 5.0 mi SW 8.1 mph - N/A   Scattered Clouds
6:00 PM 73.4 °F 55.4 °F 53% 29.98 in 5.0 mi Variable 2.3 mph - N/A   Mostly Cloudy
6:48 PM 75 °F 55 °F 39% 29.93 in 5 mi WSW 4.6 mph - -   Overcast
7:00 PM 75.2 °F 55.4 °F 50% 29.98 in 5.0 mi WSW 4.6 mph - N/A   Mostly Cloudy
8:00 PM 73.4 °F 55.4 °F 53% 29.98 in 5.0 mi West 4.6 mph - N/A   Mostly Cloudy
8:30 PM 71.6 °F 55.4 °F 57% 30.01 in 5.0 mi West 2.3 mph - N/A   Mostly Cloudy
9:30 PM 73.4 °F 55.4 °F 53% 30.01 in 5.0 mi Variable 1.2 mph - N/A   Mostly Cloudy
9:47 PM 73 °F 56 °F 44% 29.96 in 5 mi NE 1.2 mph - -   Overcast
10:00 PM 73.4 °F 55.4 °F 53% 30.01 in 5.0 mi NE 1.2 mph - N/A   Mostly Cloudy
10:30 PM 73.4 °F 55.4 °F 53% 30.01 in 5.0 mi ENE 6.9 mph - N/A   Mostly Cloudy
11:00 PM 71.6 °F 57.2 °F 60% 30.01 in 5.0 mi ENE 5.8 mph - N/A   Mostly Cloudy
11:30 PM 73.4 °F 57.2 °F 57% 29.98 in 6.2 mi NE 9.2 mph - N/A   Mostly Cloudy